Location: Newark
(16.3678°N, 77.8722°E)
Time: 08:16:36
(UTC+00:00)

Tiros 1 - Pass Details

Date: 16 December 2019
Orbit: 630 x 664 km, 48.4° (Epoch: 24 January)

Event Time Altitude Azimuth Distance (km) Brightness Sun altitude
Rises 05:12:27 0° 342° (NNW) 2,916 10.1 44.5°
Reaches altitude 10° 05:15:45 10° 7° (N) 2,003 9.4 44.9°
Maximum altitude 05:18:19 15° 41° (NE) 1,715 9.3 45.2°
Drops below altitude 10° 05:20:51 10° 75° (ENE) 1,998 9.9 45.4°
Sets 05:24:08 0° 99° (E) 2,903 10.9 45.8°
